This demonstration page uses our WeatherBlox Daily Observations layout. Learn more.

Left ArrowRight Arrow

36.19886, -115.1175

Hourly Observations for April 28, 2021

Temp ( °F °C ) Dew Point ( °F °C ) Humidity (%) Winds ( mph kmh ) Pressure ( in mb ) Visibility ( mi km ) Precip ( " mm )
12:53 am 00:53 Clear 60 15.6 27 -2.8 28 28 NW 8 13 29.98 1015 10 16 N/A
1:53 am 01:53 Clear 63 17.2 26 -3.3 25 25 NNW 15 24 29.96 1015 10 16 N/A
2:53 am 02:53 Clear 63 17.2 25 -3.9 24 24 NNW 15 24 29.98 1015 10 16 N/A
3:53 am 03:53 Clear 61 16.1 23 -5 23 23 NNW 15 24 30.00 1016 10 16 N/A
4:53 am 04:53 Clear 61 16.1 23 -5 23 23 NNW 15 24 30.00 1016 10 16 N/A
5:53 am 05:53 Sunny 61 16.1 23 -5 23 23 NNW 16 26 30.02 1017 10 16 N/A
6:53 am 06:53 Sunny 62 16.7 23 -5 22 22 NNW 18 30 30.04 1017 10 16 N/A
7:53 am 07:53 Sunny 65 18.3 23 -5 20 20 NNW 18 30 30.06 1018 10 16 N/A
8:53 am 08:53 Sunny 68 20 23 -5 18 18 NNW 18 30 30.06 1018 10 16 N/A
9:53 am 09:53 Sunny 71 21.7 22 -5.6 16 16 NNW 20 31 30.06 1018 10 16 N/A
10:53 am 10:53 Sunny 74 23.3 22 -5.6 14 14 NNW 17 28 30.06 1018 10 16 N/A
11:53 am 11:53 Sunny 77 25 22 -5.6 13 13 NW 21 33 30.06 1018 10 16 N/A
12:53 pm 12:53 Sunny 79 26.1 22 -5.6 12 12 NW 22 35 30.04 1017 10 16 N/A
1:53 pm 13:53 Sunny 81 27.2 22 -5.6 11 11 WNW 20 31 30.01 1016 10 16 N/A
2:53 pm 14:53 Sunny 83 28.3 20 -6.7 10 10 NW 18 30 29.99 1016 10 16 N/A
3:53 pm 15:53 Sunny 84 28.9 19 -7.2 9 9 NNW 20 31 29.97 1015 10 16 N/A
4:53 pm 16:53 Sunny 84 28.9 16 -8.9 8 8 NW 17 28 29.96 1015 10 16 N/A
5:53 pm 17:53 Sunny 84 28.9 15 -9.4 7 7 NW 10 17 29.97 1015 10 16 N/A
6:53 pm 18:53 Sunny 84 28.9 18 -7.8 8 8 NE 9 15 29.97 1015 10 16 N/A
7:53 pm 19:53 Clear 81 27.2 16 -8.9 9 9 N 9 15 29.99 1016 10 16 N/A
8:53 pm 20:53 Clear 78 25.6 17 -8.3 10 10 VRB 3 6 30.02 1017 10 16 N/A
9:53 pm 21:53 Clear 75 23.9 21 -6.1 13 13 ENE 7 11 30.06 1018 10 16 N/A
10:53 pm 22:53 Clear 73 22.8 24 -4.4 16 16 E 3 6 30.07 1018 10 16 N/A
11:53 pm 23:53 Clear 74 23.3 23 -5 15 15 ESE 5 7 30.09 1019 10 16 N/A

Powered by AerisWeather